Weather reports worldwide

Advertisment
Yecla, Spain (8356): temperature & dewpoint: 24.09.2020 23:00:00 - 30.09.2020 23:00:00 (CEST)Yecla, Spain (8356): wind speed & gusts: 24.09.2020 23:00:00 - 30.09.2020 23:00:00 (CEST)Yecla, Spain (8356): wind direction: 24.09.2020 23:00:00 - 30.09.2020 23:00:00 (CEST)Yecla, Spain (8356): reduced air pressure: 24.09.2020 23:00:00 - 30.09.2020 23:00:00 (CEST)Yecla, Spain (8356): visibility: 24.09.2020 23:00:00 - 30.09.2020 23:00:00 (CEST)Yecla, Spain (8356): sunshine duration: 24.09.2020 23:00:00 - 30.09.2020 23:00:00 (CEST)Yecla, Spain (8356): precipitation: 24.09.2020 23:00:00 - 30.09.2020 23:00:00 (CEST)
Date & Time tt [°C] td [°C] ff [km/h] ff [kn] fx [km/h] fx [kn] dd ppp [hPa] vv [km] sd [min] rr [mm]
30.09.2020 23:00:00 - - - - - - - - - - -
30.09.2020 22:00:00 - - - - - - - - - - -
30.09.2020 21:00:00 - - - - - - - - - - -
30.09.2020 20:00:00 21,7 7,8 15 8 28 15 WSW 1013,0 20 0 -
30.09.2020 19:00:00 23,4 6,7 13 7 21 11 SW 1012,6 20 0 0,0
30.09.2020 18:00:00 - - - - - - - - - - -
30.09.2020 17:00:00 - - - - - - - - - - -
30.09.2020 16:00:00 - - - - - - - - - - -
30.09.2020 15:00:00 - - - - - - - - - - -
30.09.2020 14:00:00 26,1 6,1 11 6 21 11 SW 1013,7 20 51 -
30.09.2020 13:00:00 - - - - - - - - - - -
30.09.2020 12:00:00 - - - - - - - - - - -
30.09.2020 11:00:00 - - - - - - - - - - -
30.09.2020 10:00:00 - - - - - - - - - - -
30.09.2020 09:00:00 - - - - - - - - - - -
30.09.2020 08:00:00 9,1 7,6 2 1 6 4 W 1018,9 17 0 -
30.09.2020 07:00:00 - - - - - - - - - - -
30.09.2020 06:00:00 10,3 8,5 2 1 7 4 WSW 1018,5 20 0 0,0
30.09.2020 05:00:00 - - - - - - - - - - -
30.09.2020 04:00:00 11,7 9,4 4 2 12 7 W 1018,7 20 0 0,0
30.09.2020 03:00:00 12,5 10,2 8 4 11 6 WSW 1018,8 20 0 0,0
30.09.2020 02:00:00 12,9 9,9 8 4 13 7 W 1018,9 20 0 -
30.09.2020 01:00:00 13,8 10,4 7 4 13 7 W 1019,0 20 0 0,0
30.09.2020 00:00:00 14,1 10,2 5 3 9 5 W 1019,1 20 0 0,0
29.09.2020 23:00:00 - - - - - - - - - - -
29.09.2020 22:00:00 - - - - - - - - - - -
29.09.2020 21:00:00 19,5 11,0 11 6 16 9 WSW 1016,3 20 0 0,0
29.09.2020 20:00:00 21,1 10,5 8 5 17 9 SSW 1015,6 20 12 -
29.09.2020 19:00:00 - - - - - - - - - - -
29.09.2020 18:00:00 25,9 8,8 12 7 22 12 S 1013,8 20 60 0,0
29.09.2020 17:00:00 - - - - - - - - - - -
29.09.2020 16:00:00 - - - - - - - - - - -
29.09.2020 15:00:00 26,0 8,0 7 4 20 11 SSE 1015,4 20 60 0,0
29.09.2020 14:00:00 24,6 8,9 7 4 17 9 S 1016,6 20 60 -
29.09.2020 13:00:00 22,2 10,6 5 3 13 7 SE 1017,9 20 60 0,0
29.09.2020 12:00:00 - - - - - - - - - - -
29.09.2020 11:00:00 16,7 11,2 3 2 8 4 ENE 1019,7 20 60 0,0
29.09.2020 10:00:00 12,3 10,8 2 1 7 4 SSE 1020,5 10 38 0,0
29.09.2020 09:00:00 11,3 9,9 3 2 8 5 ESE 1020,6 10 9 0,0
29.09.2020 08:00:00 11,5 9,9 7 4 12 6 W 1020,4 0,3 0 -
29.09.2020 07:00:00 10,0 8,0 1 1 12 6 S 1020,2 16 0 0,0
29.09.2020 06:00:00 8,7 6,2 6 3 9 5 WSW 1020,4 20 0 0,0
29.09.2020 05:00:00 9,3 6,2 2 1 6 3 SSW 1020,3 20 0 0,0
29.09.2020 04:00:00 9,7 6,5 8 4 13 7 W 1020,4 20 0 0,0
29.09.2020 03:00:00 10,4 6,4 8 4 13 7 W 1020,4 20 0 0,0
29.09.2020 02:00:00 10,3 5,5 7 4 13 7 WSW 1020,6 20 0 -
29.09.2020 01:00:00 - - - - - - - - - - -
29.09.2020 00:00:00 12,7 4,5 9 5 13 7 WSW 1019,9 20 0 0,0
28.09.2020 23:00:00 12,9 4,1 6 3 9 5 W 1019,3 20 0 0,0
28.09.2020 22:00:00 16,2 2,9 5 3 12 7 N 1017,9 20 0 0,0
28.09.2020 21:00:00 - - - - - - - - - - -
28.09.2020 20:00:00 22,3 0,2 8 4 15 8 SE 1014,7 20 39 -
28.09.2020 19:00:00 - - - - - - - - - - -
28.09.2020 18:00:00 - - - - - - - - - - -
28.09.2020 17:00:00 27,3 -9,9 12 6 22 12 W 1012,9 20 60 0,0
28.09.2020 16:00:00 - - - - - - - - - - -
28.09.2020 15:00:00 - - - - - - - - - - -
28.09.2020 14:00:00 24,9 -6,4 11 6 29 15 SW 1015,0 20 60 -
28.09.2020 13:00:00 - - - - - - - - - - -
28.09.2020 12:00:00 - - - - - - - - - - -
28.09.2020 11:00:00 18,1 -0,3 4 2 13 7 E 1016,9 20 60 0,0
28.09.2020 10:00:00 14,3 1,5 8 4 14 7 E 1017,4 20 60 0,0
28.09.2020 09:00:00 11,2 1,1 3 2 22 12 SSW 1018,1 20 34 0,0
28.09.2020 08:00:00 14,1 -0,7 10 5 33 18 NW 1016,2 20 0 -
28.09.2020 07:00:00 - - - - - - - - - - -
28.09.2020 06:00:00 - - - - - - - - - - -
28.09.2020 05:00:00 - - - - - - - - - - -
28.09.2020 04:00:00 10,1 -1,0 6 3 12 6 S 1017,3 20 0 0,0
28.09.2020 03:00:00 - - - - - - - - - - -
28.09.2020 02:00:00 12,1 -1,4 3 1 10 5 N 1017,0 20 0 -
28.09.2020 01:00:00 12,5 -1,2 5 3 10 5 SW 1016,6 20 0 0,0
28.09.2020 00:00:00 16,7 -2,0 6 3 14 8 W 1015,3 20 0 0,0
27.09.2020 23:00:00 18,2 -2,2 7 4 19 10 SW 1014,5 20 0 0,0
27.09.2020 22:00:00 - - - - - - - - - - -
27.09.2020 21:00:00 20,3 -2,7 12 6 34 18 W 1012,8 20 0 0,0
27.09.2020 20:00:00 21,3 -4,2 19 10 33 18 W 1012,1 20 38 -
27.09.2020 19:00:00 - - - - - - - - - - -
27.09.2020 18:00:00 - - - - - - - - - - -
27.09.2020 17:00:00 24,8 -3,6 14 8 37 20 W 1010,3 17 60 0,0
27.09.2020 16:00:00 24,5 -3,9 12 7 - - WSW 1010,6 18 60 0,0
27.09.2020 15:00:00 - - - - - - - - - - -
27.09.2020 14:00:00 22,3 1,3 10 6 - - N 1011,9 20 60 -
27.09.2020 13:00:00 21,0 1,7 16 9 41 22 NNE 1012,3 20 60 0,0
27.09.2020 12:00:00 20,3 5,5 9 5 41 22 ESE 1012,1 16 60 0,0
27.09.2020 11:00:00 - - - - - - - - - - -
27.09.2020 10:00:00 - - - - - - - - - - -
27.09.2020 09:00:00 15,2 7,0 22 12 51 27 W 1012,3 20 34 0,0
27.09.2020 08:00:00 14,9 6,2 26 14 61 33 W 1012,2 20 0 -
27.09.2020 07:00:00 - - - - - - - - - - -
27.09.2020 06:00:00 16,1 5,6 34 19 72 39 W 1011,2 20 0 0,0
27.09.2020 05:00:00 - - - - - - - - - - -
27.09.2020 04:00:00 16,5 3,6 29 15 58 31 W 1011,4 20 0 0,0
27.09.2020 03:00:00 - - - - - - - - - - -
27.09.2020 02:00:00 16,7 2,3 26 14 54 29 W 1012,4 20 0 -
27.09.2020 01:00:00 17,4 2,1 29 16 54 29 W 1013,0 20 0 0,0
27.09.2020 00:00:00 16,9 2,5 17 9 42 23 WSW 1013,8 20 0 0,0
26.09.2020 23:00:00 - - - - - - - - - - -
26.09.2020 22:00:00 17,7 1,3 15 8 38 20 WSW 1014,4 20 0 0,0
26.09.2020 21:00:00 18,4 0,9 19 11 39 21 W 1014,3 20 0 0,0
26.09.2020 20:00:00 19,1 0,6 24 13 48 26 W 1014,1 20 7 -
26.09.2020 19:00:00 20,4 1,3 24 13 45 24 W 1013,7 20 56 0,0
26.09.2020 18:00:00 - - - - - - - - - - -
26.09.2020 17:00:00 22,0 1,1 22 12 56 30 W 1013,7 20 60 0,0
26.09.2020 16:00:00 21,7 0,9 18 10 49 26 W 1014,4 20 60 0,0
26.09.2020 15:00:00 - - - - - - - - - - -
26.09.2020 14:00:00 19,9 0,9 13 7 35 19 W 1016,9 20 60 -
26.09.2020 13:00:00 19,5 0,4 13 7 44 24 W 1017,8 20 60 0,0
26.09.2020 12:00:00 18,1 -1,2 8 5 37 20 WSW 1018,7 20 60 0,0
26.09.2020 11:00:00 - - - - - - - - - - -
26.09.2020 10:00:00 - - - - - - - - - - -
26.09.2020 09:00:00 11,8 0,6 8 4 21 11 W 1020,4 20 36 0,0
26.09.2020 08:00:00 11,6 0,6 9 5 22 12 W 1020,1 20 0 -
26.09.2020 07:00:00 11,9 0,6 8 4 33 18 W 1020,1 20 0 0,0
26.09.2020 06:00:00 12,5 0,6 13 7 31 17 NE 1020,1 20 0 0,0
26.09.2020 05:00:00 13,1 0,2 5 3 20 11 W 1020,1 20 0 0,0
26.09.2020 04:00:00 13,7 0,0 7 4 22 12 SE 1020,5 20 0 0,0
26.09.2020 03:00:00 14,2 -0,3 8 4 34 19 W 1021,0 20 0 0,0
26.09.2020 02:00:00 15,0 -1,2 13 7 28 15 W 1020,7 20 0 -
26.09.2020 01:00:00 15,0 -1,2 5 3 25 14 S 1021,5 20 0 0,0
26.09.2020 00:00:00 15,8 -1,2 6 4 20 11 NE 1021,7 20 0 0,0
25.09.2020 23:00:00 - - - - - - - - - - -
25.09.2020 22:00:00 - - - - - - - - - - -
25.09.2020 21:00:00 17,8 -1,4 19 10 47 25 W 1019,9 20 0 0,0
25.09.2020 20:00:00 18,8 -2,7 27 14 59 32 W 1018,7 20 46 -
25.09.2020 19:00:00 - - - - - - - - - - -
25.09.2020 18:00:00 - - - - - - - - - - -
25.09.2020 17:00:00 - - - - - - - - - - -
25.09.2020 16:00:00 - - - - - - - - - - -
25.09.2020 15:00:00 - - - - - - - - - - -
25.09.2020 14:00:00 19,6 2,9 32 17 63 34 W 1018,3 20 60 -
25.09.2020 13:00:00 - - - - - - - - - - -
25.09.2020 12:00:00 - - - - - - - - - - -
25.09.2020 11:00:00 16,8 5,8 29 15 61 33 W 1018,0 20 55 0,0
25.09.2020 10:00:00 14,9 7,4 29 15 65 35 W 1017,6 20 0 0,0
25.09.2020 09:00:00 - - - - - - - - - - -
25.09.2020 08:00:00 15,8 9,9 28 15 52 28 W 1015,9 20 0 -
25.09.2020 07:00:00 16,5 11,0 22 12 40 22 WNW 1015,5 20 0 0,0
25.09.2020 06:00:00 - - - - - - - - - - -
25.09.2020 05:00:00 17,9 11,2 16 9 34 18 W 1015,0 20 0 0,0
25.09.2020 04:00:00 - - - - - - - - - - -
25.09.2020 03:00:00 - - - - - - - - - - -
25.09.2020 02:00:00 20,1 11,3 22 12 43 23 W 1015,4 20 0 -
25.09.2020 01:00:00 19,0 11,3 8 4 16 9 W 1015,7 20 0 0,0
25.09.2020 00:00:00 19,8 11,3 8 4 29 16 W 1015,8 20 0 0,0
24.09.2020 23:00:00 - - - - - - - - - - -

tt = temperature
td = dewpoint
ff = wind speed
fx = gusts
dd = wind direction
ppp = reduced air pressure
vv = visibility
sd = sunshine duration
rr = precipitation

Next stations